Wind_Speed
2 1 2 2 3 5 0 3 2 4 1 3 8 5 5 3 3 3 11 14 10 6 2 2 2 4 4 5 7 8 9 9 9 9 8 7 8 6 6 7 6 5 5 5 6 7 5 4 4
1 2 2 3 4 3 4 2 5 5 5 13 11 10 2 1 4 7 11 15 11 7 3 1 3 4 6 7 8 9 10 9 9 8 8 8 7 7 6 5 5 4 4 4 4 5 5 5 4
1 2 1 4 3 3 4 4 5 8 18 6 5 3 5 5 6 13 13 16 10 6 4 3 4 6 9 10 11 10 9 7 7 7 7 6 6 6 6 5 4 4 3 3 3 4 4 4 4
1 1 4 4 2 3 3 5 7 14 7 4 6 3 5 10 9 11 15 13 10 6 4 5 8 11 12 13 12 9 8 7 7 6 5 4 4 4 4 4 4 4 3 3 3 4 4 4 3
1 1 3 2 2 2 2 5 21 7 3 6 9 6 4 12 12 13 16 13 10 6 4 7 11 14 14 13 11 9 8 7 4 3 3 3 4 3 2 1 1 2 5 4 4 4 6 5 4
0 2 3 2 4 2 3 9 17 7 5 7 4 9 6 11 15 17 16 14 11 7 7 11 15 16 16 14 11 10 7 5 2 1 2 3 4 4 5 5 4 4 4 4 6 6 4 6 6
3 3 4 4 3 3 4 12 8 10 7 7 5 7 5 16 17 18 17 15 12 9 12 17 18 18 17 14 13 10 6 3 1 3 4 5 6 7 7 8 8 8 7 5 6 5 5 5 7
2 4 4 3 4 5 4 11 7 14 9 6 10 6 6 20 22 21 19 16 13 12 15 18 20 19 18 16 14 10 6 3 2 4 5 6 6 7 8 9 9 10 8 6 5 5 4 4 6
3 4 3 5 6 5 6 7 8 8 7 13 15 12 9 17 24 24 23 21 19 18 19 21 22 22 20 19 15 11 7 4 3 4 4 6 6 8 8 9 9 9 9 7 7 6 4 3 3
3 3 8 5 5 4 5 10 14 7 9 12 17 20 14 20 27 29 29 28 26 23 23 22 24 23 23 20 17 13 9 6 5 4 5 6 8 8 8 8 9 8 7 7 8 8 7 6 5
4 5 4 4 9 7 4 7 11 10 5 18 25 29 22 25 30 31 31 30 27 25 26 24 25 25 24 22 18 14 11 8 7 6 6 8 9 10 9 8 7 6 5 5 6 6 6 7 7
2 8 6 4 7 4 4 4 9 22 26 16 29 24 27 30 34 34 33 31 31 29 28 26 25 26 25 23 21 16 14 12 10 8 8 10 11 10 10 9 8 6 5 5 5 5 6 6 5
3 4 6 14 11 10 8 11 13 20 31 28 19 20 26 33 36 37 34 32 31 32 29 29 28 27 26 25 23 20 17 15 13 11 10 11 11 11 11 11 10 9 7 6 5 6 6 7 7
4 7 13 9 12 9 5 8 8 9 25 29 28 27 27 33 37 39 40 37 35 33 32 30 30 29 28 28 26 23 21 19 16 14 13 12 12 12 12 11 11 9 8 8 7 7 7 7 7
7 6 7 6 6 6 3 10 15 27 29 25 28 33 32 34 37 43 41 40 38 37 33 33 31 31 30 30 29 27 25 23 19 16 14 13 12 13 12 12 11 10 9 8 8 9 9 9 8
4 2 3 4 3 5 8 15 13 16 24 35 36 33 34 37 39 40 43 42 41 40 37 35 35 33 32 32 31 29 27 25 21 18 16 14 13 13 13 13 12 11 10 9 9 9 9 10 10
6 5 5 9 11 2 8 9 9 11 17 29 33 39 38 39 42 45 44 43 43 42 41 40 38 37 35 34 33 32 30 27 24 21 17 15 14 14 14 14 13 12 11 9 9 10 10 11 12
6 5 5 6 3 2 7 15 18 25 16 20 28 32 38 42 45 43 45 46 45 45 44 43 41 39 37 35 35 34 32 30 26 22 19 17 16 15 15 14 13 12 11 10 10 10 11 13 15
2 3 6 6 4 4 8 17 18 28 17 26 35 35 38 43 41 44 44 47 48 49 49 48 46 43 41 40 38 37 35 32 28 24 21 19 17 16 16 15 13 12 11 10 11 11 12 12 16
7 7 13 8 7 7 10 21 16 16 16 28 35 40 47 48 45 46 44 46 51 51 50 49 50 48 45 43 40 37 34 31 27 24 23 21 19 18 17 15 14 13 11 11 11 11 12 13 14
8 7 12 13 10 7 7 26 12 11 22 23 33 43 47 48 50 49 49 49 48 54 54 53 52 51 49 45 41 38 34 32 31 30 27 23 20 19 18 16 15 13 12 11 11 11 12 13 13
9 11 14 10 2 9 4 18 3 6 12 7 25 36 44 47 50 51 47 47 49 52 56 57 54 54 52 48 45 43 41 38 35 30 24 22 22 20 18 17 15 14 12 12 12 11 11 11 12
10 7 7 6 5 4 5 4 17 4 5 9 11 31 36 39 41 44 45 45 47 46 53 58 57 56 54 51 48 44 40 36 31 27 25 25 23 22 19 17 15 14 13 13 12 11 10 11 12
1 2 1 4 4 6 8 8 27 5 8 7 10 23 31 33 32 32 34 34 38 40 46 54 60 58 57 54 49 46 42 37 34 31 28 26 24 22 20 18 16 15 14 13 12 12 12 11 13
4 4 4 4 2 11 10 9 27 5 2 5 10 31 35 33 35 36 28 30 35 40 44 47 55 62 61 55 51 47 42 38 36 32 29 27 25 23 20 18 17 15 13 13 13 13 14 14 17
3 8 5 6 4 7 3 9 9 2 9 12 19 26 30 35 39 40 33 31 29 31 37 42 50 60 60 55 51 47 42 40 36 32 28 26 24 20 18 18 17 14 14 13 14 15 15 17 19
3 3 6 11 22 12 14 17 14 10 11 12 22 32 34 36 40 40 37 29 26 26 32 39 44 50 55 55 52 47 43 40 36 31 28 25 22 20 19 18 16 15 14 14 15 17 18 19 20
5 3 6 3 9 20 12 7 12 13 16 19 20 29 35 42 45 45 41 28 25 28 30 35 38 42 48 54 52 47 43 40 35 31 29 26 22 21 19 18 17 16 15 15 16 18 18 20 22
12 13 7 6 8 9 11 9 3 8 11 18 19 32 28 34 41 45 39 28 24 24 30 33 36 40 45 50 51 47 44 39 34 32 29 26 22 21 19 17 16 16 16 16 17 18 19 22 24
15 18 6 4 6 5 7 10 6 18 25 34 34 35 51 46 35 43 43 35 33 26 25 33 36 38 40 44 49 48 41 38 36 33 30 26 24 21 17 17 17 17 16 16 17 18 21 24 25
Wind_Direction
353 80 126 126 57 66 161 217 143 150 198 187 144 169 181 102 167 200 160 170 161 174 141 72 101 136 129 127 123 112 112 115 110 107 105 106 107 107 107 101 91 74 73 79 98 122 125 101 87
4 111 123 96 86 67 263 240 191 195 151 128 116 120 121 224 162 152 148 168 165 171 155 149 154 152 154 143 133 132 131 127 123 117 110 107 109 107 114 116 118 115 105 94 103 112 132 131 120
43 100 150 94 107 175 211 208 164 152 139 145 132 183 164 172 175 160 154 153 163 175 178 209 171 163 159 155 156 153 141 129 121 123 121 112 105 112 117 118 121 125 130 134 131 133 142 144 154
13 119 63 86 221 244 197 192 158 149 197 218 192 152 164 166 173 176 165 166 172 176 220 221 175 167 169 169 169 158 151 143 142 135 108 114 107 101 110 137 141 153 158 168 174 169 155 164 168
342 90 61 78 266 265 253 183 163 160 187 178 175 181 193 185 186 183 182 181 189 205 225 193 179 177 177 178 174 166 160 157 153 95 67 28 31 29 11 1 247 201 208 189 194 197 199 172 171
195 97 76 205 250 263 255 184 174 193 181 172 192 154 184 193 194 186 190 192 197 223 224 189 186 182 185 188 181 173 166 155 121 53 16 347 343 344 341 323 313 291 280 251 245 241 219 217 195
115 90 198 184 245 305 214 173 186 190 181 217 194 149 207 192 185 192 195 201 210 214 204 191 187 189 194 194 186 180 176 173 245 309 321 323 321 325 321 317 322 319 310 297 278 271 247 231 225
107 91 134 216 201 252 207 177 206 189 205 194 193 204 211 201 189 191 196 203 212 206 203 200 197 198 202 200 190 188 190 208 281 310 316 316 316 315 313 310 315 313 312 309 296 291 272 262 225
119 65 220 218 162 234 187 188 194 212 192 191 202 224 229 195 192 194 197 201 207 204 204 205 205 202 204 202 196 195 207 233 272 303 318 319 320 319 315 311 312 301 304 307 305 306 299 283 278
111 131 218 211 198 218 217 203 189 176 204 215 223 226 221 201 199 203 208 211 212 213 206 206 208 207 206 203 203 206 217 237 259 284 310 324 324 321 317 314 312 311 305 301 301 303 299 289 271
162 198 211 249 233 242 234 225 194 177 221 218 224 230 217 209 208 212 216 224 225 219 212 209 209 211 211 210 212 217 226 240 260 276 300 316 322 322 318 315 313 307 306 304 305 304 296 283 273
250 240 221 264 238 233 223 218 205 208 222 242 242 248 226 215 215 218 220 223 223 222 218 214 214 215 214 214 216 223 233 239 252 265 290 310 315 311 306 303 297 294 293 289 292 301 310 312 303
218 258 249 244 256 255 256 238 234 237 238 242 245 240 233 227 227 227 230 228 225 223 220 219 219 218 217 219 220 225 236 241 248 261 283 297 302 301 299 296 292 289 289 289 290 294 297 301 303
306 279 266 275 263 254 252 264 254 252 247 248 249 248 240 236 232 228 224 226 227 226 226 224 224 224 223 223 225 233 241 243 248 258 273 286 293 295 293 291 287 283 282 286 293 296 296 297 303
301 322 319 253 239 244 240 286 238 253 256 254 247 247 244 240 232 233 232 228 232 231 228 227 228 228 228 230 234 238 243 243 246 255 268 279 287 291 291 288 281 277 277 284 292 298 305 308 305
356 29 313 300 185 251 160 261 271 271 253 250 249 247 240 239 240 240 232 231 230 230 231 229 229 230 232 235 238 240 240 241 245 253 264 273 281 285 286 284 279 276 275 279 286 288 294 302 305
2 264 242 311 208 162 193 262 271 259 246 251 252 248 244 244 240 237 235 236 235 234 232 230 230 232 232 234 236 237 237 240 243 250 259 267 274 277 278 277 274 271 272 278 286 294 304 311 311
224 236 261 254 327 232 258 257 270 267 271 267 266 259 251 248 248 246 243 239 238 235 234 233 233 231 231 232 231 231 233 237 241 248 255 260 266 270 270 269 265 264 268 280 292 301 313 320 319
273 240 269 262 276 256 248 258 266 274 249 254 260 263 259 253 255 250 245 240 237 235 233 232 231 231 229 229 227 228 234 237 241 246 251 255 259 262 264 265 263 262 265 280 292 304 313 324 324
257 265 270 278 244 201 270 270 255 261 250 245 252 258 261 262 258 252 248 240 236 236 235 231 229 230 233 233 234 235 238 238 241 244 247 250 253 255 258 261 261 262 266 282 292 302 313 324 330
241 245 264 262 317 237 283 280 255 239 257 248 247 255 262 263 264 260 253 248 239 235 236 233 229 230 231 232 230 231 230 232 233 237 243 248 249 250 253 254 255 256 262 279 287 295 307 317 327
268 219 242 256 171 275 118 292 282 282 256 245 240 248 258 263 264 264 260 256 251 243 237 235 232 231 230 230 229 232 235 237 240 244 245 244 244 246 248 248 250 251 263 274 277 286 298 307 318
235 203 206 214 210 342 183 250 288 45 277 265 264 264 270 269 268 269 268 267 263 252 243 236 231 231 230 230 230 233 234 236 239 239 237 239 240 242 243 245 244 251 263 270 271 277 285 299 310
224 254 254 62 117 253 214 167 279 234 202 243 270 273 280 286 288 280 277 275 266 256 245 237 229 230 229 228 229 232 234 234 233 233 235 237 237 238 239 240 242 252 263 268 265 268 276 292 301
171 77 306 304 167 246 162 185 243 286 17 219 263 297 291 291 289 290 283 275 269 257 244 237 230 227 227 226 228 231 232 233 235 237 238 235 234 236 238 237 241 251 260 265 262 269 277 285 291
208 176 184 256 233 278 27 242 248 287 326 294 272 272 279 288 292 293 296 289 273 261 245 236 230 226 226 225 227 229 230 231 232 234 233 234 235 237 233 233 240 248 254 264 264 273 280 287 291
311 206 229 254 271 275 266 273 293 274 277 296 286 285 285 297 308 308 305 302 279 263 248 236 231 228 226 224 225 226 227 228 229 229 228 229 230 228 228 233 238 247 255 264 267 275 283 288 290
277 256 303 295 283 270 265 251 258 303 302 346 359 348 343 341 334 331 322 305 282 267 252 241 235 230 227 223 224 225 226 226 226 224 226 225 226 225 229 233 240 249 258 265 270 279 286 288 293
316 302 274 290 249 273 275 266 40 62 354 335 324 321 324 332 339 341 337 318 301 271 254 242 235 227 225 223 222 222 223 223 222 222 222 223 222 224 230 234 241 251 259 266 274 281 288 292 296
261 271 282 277 320 304 288 265 356 336 326 326 322 321 326 326 328 331 340 331 316 283 257 245 235 229 226 223 221 221 222 221 220 219 220 219 220 223 229 233 242 252 260 267 274 285 291 296 298
Height
1531 1531 1531 1532 1544 1547 1556 1551 1544 1547 1547 1546 1546 1548 1549 1549 1550 1561 1551 1553 1556 1558 1559 1559 1559 1559 1559 1559 1559 1559 1559 1558 1557 1557 1556 1556 1555 1555 1555 1555 1555 1555 1554 1554 1553 1552 1553 1553 1553
1531 1531 1532 1532 1551 1562 1559 1545 1545 1544 1543 1545 1546 1548 1548 1549 1549 1549 1550 1553 1555 1557 1558 1559 1559 1559 1560 1560 1560 1559 1559 1558 1558 1558 1557 1557 1556 1556 1555 1555 1555 1555 1554 1554 1554 1554 1553 1553 1554
1531 1530 1532 1538 1554 1558 1556 1542 1541 1542 1543 1545 1547 1548 1547 1548 1548 1549 1550 1552 1555 1557 1558 1558 1559 1559 1560 1560 1560 1559 1559 1559 1559 1558 1558 1557 1556 1556 1555 1555 1555 1555 1555 1554 1554 1554 1554 1554 1554
1531 1532 1534 1543 1547 1541 1540 1538 1538 1542 1544 1544 1545 1547 1547 1547 1548 1549 1550 1552 1555 1556 1558 1558 1558 1559 1559 1559 1560 1560 1560 1560 1559 1559 1558 1557 1557 1556 1556 1555 1555 1555 1555 1554 1554 1554 1554 1554 1555
1531 1531 1543 1547 1544 1539 1537 1537 1538 1540 1542 1542 1543 1544 1545 1546 1547 1548 1550 1552 1554 1555 1556 1557 1557 1558 1559 1559 1560 1560 1560 1560 1560 1560 1560 1559 1558 1558 1557 1556 1555 1555 1554 1554 1554 1553 1553 1554 1554
1531 1532 1549 1553 1546 1537 1536 1536 1538 1540 1540 1541 1543 1542 1544 1544 1545 1547 1549 1551 1552 1554 1555 1556 1557 1558 1559 1559 1560 1560 1561 1561 1561 1561 1560 1560 1559 1558 1557 1556 1556 1555 1555 1554 1553 1553 1554 1554 1553
1532 1537 1545 1545 1544 1539 1534 1535 1537 1537 1538 1539 1539 1542 1542 1541 1544 1546 1548 1549 1551 1552 1553 1554 1556 1557 1558 1559 1560 1561 1561 1562 1562 1561 1561 1560 1560 1559 1557 1556 1555 1554 1554 1553 1553 1553 1553 1553 1553
1532 1535 1543 1543 1546 1541 1532 1533 1533 1535 1536 1536 1538 1537 1537 1537 1541 1544 1546 1547 1549 1550 1551 1553 1554 1556 1557 1558 1560 1561 1561 1562 1562 1562 1561 1561 1560 1559 1557 1555 1555 1554 1553 1552 1552 1552 1552 1551 1552
1532 1543 1549 1541 1544 1534 1530 1531 1531 1531 1532 1533 1533 1532 1532 1534 1537 1540 1542 1544 1546 1547 1549 1550 1552 1554 1556 1557 1559 1560 1561 1561 1562 1562 1561 1561 1560 1558 1557 1555 1554 1553 1552 1552 1551 1551 1551 1550 1550
1531 1544 1539 1530 1529 1529 1527 1528 1527 1530 1530 1530 1530 1529 1530 1531 1532 1534 1536 1538 1540 1542 1545 1547 1549 1551 1554 1556 1558 1559 1560 1561 1561 1561 1561 1560 1559 1558 1556 1555 1553 1552 1552 1551 1550 1550 1550 1550 1550
1531 1536 1529 1526 1526 1525 1525 1525 1526 1525 1529 1523 1522 1524 1527 1527 1528 1529 1531 1532 1534 1538 1541 1543 1546 1549 1551 1554 1556 1558 1559 1560 1560 1560 1560 1559 1558 1556 1555 1554 1553 1552 1551 1550 1550 1549 1549 1548 1548
1531 1526 1526 1524 1524 1524 1523 1522 1521 1519 1514 1518 1520 1522 1522 1523 1523 1524 1526 1529 1531 1534 1537 1540 1543 1546 1548 1551 1553 1555 1556 1557 1558 1558 1558 1558 1557 1555 1554 1553 1552 1551 1550 1549 1549 1548 1547 1547 1547
1528 1524 1523 1522 1522 1522 1521 1519 1517 1510 1513 1515 1516 1517 1518 1518 1519 1521 1522 1525 1528 1530 1533 1536 1539 1542 1544 1547 1549 1552 1553 1554 1555 1556 1556 1555 1555 1554 1553 1551 1550 1550 1549 1548 1547 1547 1546 1545 1545
1526 1523 1522 1521 1521 1521 1520 1517 1515 1505 1509 1511 1512 1512 1513 1513 1514 1517 1518 1520 1523 1527 1529 1532 1535 1538 1541 1544 1546 1548 1550 1551 1552 1553 1553 1553 1552 1552 1551 1549 1548 1548 1547 1546 1545 1545 1544 1544 1543
1526 1526 1522 1519 1519 1519 1518 1516 1505 1503 1506 1506 1506 1506 1507 1507 1510 1508 1511 1515 1517 1520 1525 1527 1531 1534 1536 1539 1541 1543 1546 1547 1548 1549 1550 1550 1549 1549 1548 1547 1546 1545 1545 1544 1543 1542 1542 1541 1541
1528 1528 1533 1517 1516 1515 1517 1513 1493 1499 1500 1498 1499 1500 1500 1501 1501 1503 1507 1510 1512 1516 1519 1522 1525 1528 1531 1534 1536 1538 1541 1543 1544 1545 1546 1546 1545 1545 1545 1544 1543 1543 1543 1542 1541 1541 1540 1539 1538
1539 1543 1537 1527 1513 1514 1515 1512 1491 1493 1493 1492 1492 1492 1494 1494 1496 1498 1502 1505 1507 1510 1513 1516 1520 1522 1526 1529 1531 1533 1536 1538 1539 1540 1541 1542 1542 1541 1541 1541 1541 1540 1540 1540 1539 1537 1536 1536 1535
1541 1540 1535 1531 1515 1514 1512 1505 1490 1490 1491 1489 1487 1487 1488 1488 1486 1490 1493 1497 1501 1504 1507 1510 1513 1517 1521 1523 1525 1528 1530 1532 1534 1535 1537 1537 1538 1538 1538 1538 1538 1537 1537 1537 1536 1535 1534 1533 1531
1531 1534 1535 1524 1515 1515 1513 1502 1494 1486 1487 1483 1481 1480 1478 1474 1475 1480 1483 1488 1491 1494 1498 1501 1505 1509 1512 1514 1517 1519 1522 1525 1528 1530 1531 1532 1533 1534 1534 1534 1534 1534 1533 1534 1533 1532 1531 1530 1528
1532 1534 1529 1518 1511 1513 1507 1488 1484 1481 1474 1475 1473 1471 1467 1465 1467 1469 1472 1477 1480 1483 1487 1491 1496 1500 1503 1506 1510 1514 1518 1520 1524 1525 1526 1527 1528 1529 1529 1529 1530 1530 1530 1530 1530 1529 1528 1527 1526
1530 1534 1527 1523 1515 1507 1506 1470 1474 1465 1460 1462 1464 1461 1458 1455 1456 1458 1461 1463 1469 1473 1476 1479 1485 1489 1493 1499 1504 1506 1511 1514 1516 1518 1520 1522 1523 1524 1524 1525 1525 1526 1527 1527 1527 1526 1525 1524 1524
1527 1515 1513 1517 1523 1522 1504 1486 1466 1463 1458 1455 1453 1450 1448 1447 1447 1448 1451 1453 1456 1458 1464 1469 1475 1480 1485 1490 1493 1496 1500 1503 1508 1512 1515 1516 1517 1518 1519 1520 1521 1522 1523 1523 1524 1523 1522 1521 1522
1514 1506 1510 1512 1519 1518 1509 1522 1435 1451 1457 1455 1445 1441 1440 1438 1438 1438 1440 1441 1442 1449 1450 1456 1463 1468 1474 1479 1484 1489 1493 1498 1503 1506 1509 1510 1512 1514 1515 1516 1517 1518 1519 1520 1520 1519 1519 1518 1519
1502 1505 1507 1517 1522 1526 1490 1511 1444 1450 1448 1441 1437 1436 1434 1431 1431 1430 1431 1433 1433 1435 1438 1442 1449 1455 1462 1468 1474 1479 1484 1490 1495 1499 1502 1505 1507 1509 1511 1512 1513 1514 1515 1516 1516 1516 1516 1515 1515
1504 1513 1531 1526 1532 1503 1483 1497 1433 1435 1442 1439 1437 1433 1429 1426 1424 1422 1424 1423 1421 1421 1426 1431 1437 1442 1448 1458 1465 1471 1477 1483 1487 1492 1496 1499 1502 1504 1506 1508 1509 1510 1511 1512 1512 1512 1512 1511 1510
1510 1514 1528 1523 1520 1499 1489 1483 1444 1436 1436 1434 1431 1428 1424 1421 1419 1416 1418 1415 1412 1411 1416 1421 1425 1431 1440 1450 1457 1464 1471 1475 1480 1485 1490 1494 1497 1500 1502 1504 1505 1506 1507 1508 1508 1508 1508 1507 1505
1505 1511 1497 1504 1486 1497 1469 1456 1438 1435 1434 1431 1428 1424 1422 1421 1419 1415 1413 1411 1407 1406 1406 1410 1417 1425 1432 1440 1449 1456 1463 1468 1473 1479 1484 1488 1491 1494 1496 1499 1500 1502 1503 1503 1503 1503 1503 1501 1500
1503 1500 1507 1508 1507 1487 1465 1466 1451 1441 1438 1437 1438 1436 1430 1424 1419 1415 1410 1405 1403 1401 1402 1406 1411 1416 1423 1432 1439 1448 1455 1462 1468 1474 1477 1481 1486 1489 1491 1493 1496 1497 1498 1498 1498 1498 1497 1496 1495
1511 1505 1502 1496 1484 1482 1482 1456 1438 1457 1455 1448 1439 1436 1432 1423 1420 1415 1409 1404 1400 1398 1397 1398 1402 1409 1414 1423 1432 1440 1447 1456 1462 1467 1471 1476 1479 1482 1486 1488 1491 1492 1493 1494 1493 1493 1492 1490 1488
1506 1501 1502 1511 1497 1500 1495 1465 1446 1445 1443 1443 1438 1432 1420 1417 1420 1414 1410 1403 1397 1397 1394 1395 1398 1402 1408 1415 1423 1432 1441 1449 1455 1460 1465 1470 1474 1477 1480 1482 1485 1487 1488 1488 1488 1487 1487 1484 1481